User: anonymous   Login
Location: Poughquag
(41.6090°N, 73.6820°W)
Time: 17:58:51
(UTC-04:00)
Language:

ITAMSAT 1 - Orbit

View from above orbital plane
View from above orbital plane
View from above satellite
View from above satellite

Ground track
Ground track

The orbit data is extracted from the following two-line orbital elements,

1 22826U 93061D   24197.41659871  .00000299  00000-0  13130-3 0  9994
2 22826  98.7814 250.3489 0008588 348.7267  11.3722 14.30905885606939
Epoch (UTC): 15 July 2024 09:59:54
Eccentricity: 0.0008588
inclination: 98.7814°
perigee height: 782 km
apogee height: 795 km
right ascension of ascending node: 250.3489°
argument of perigee: 348.7267°
revolutions per day: 14.30905885
mean anomaly at epoch: 11.3722°
orbit number at epoch: 60693

The dashed part of the orbit path shows where the satellite is in the earth's shadow,  

DLR